Time,TemperatureF,DewpointF,PressureIn,WindDirection,WindDirectionDegrees,WindSpeedMPH,WindSpeedGustMPH,Humidity,HourlyPrecipIn,Conditions,Clouds,dailyrainin,SoftwareType,DateUTC
2013-03-12 00:01:00,51.0,22.0,30.15,South,174,7.0,9.0,32,0.00,,,0.00,,2013-03-12 07:01:00,
2013-03-12 00:12:00,51.0,22.0,30.15,South,174,7.0,9.0,32,0.00,,,0.00,,2013-03-12 07:12:00,
2013-03-12 00:21:00,51.0,22.0,30.15,SSW,200,4.0,7.0,32,0.00,,,0.00,,2013-03-12 07:21:00,
2013-03-12 00:32:00,50.0,22.0,30.15,South,191,5.0,7.0,33,0.00,,,0.00,,2013-03-12 07:32:00,
2013-03-12 00:41:00,50.0,22.0,30.15,South,191,5.0,7.0,33,0.00,,,0.00,,2013-03-12 07:41:00,
2013-03-12 00:52:00,49.0,23.0,30.15,SSW,198,6.0,7.0,35,0.00,,,0.00,,2013-03-12 07:52:00,
2013-03-12 01:01:00,49.0,24.0,30.15,SSW,199,5.0,6.0,37,0.00,,,0.00,,2013-03-12 08:01:00,
2013-03-12 01:12:00,49.0,24.0,30.15,SSW,199,5.0,6.0,37,0.00,,,0.00,,2013-03-12 08:12:00,
2013-03-12 01:22:00,48.0,24.0,30.15,South,191,6.0,7.0,38,0.00,,,0.00,,2013-03-12 08:22:00,
2013-03-12 01:32:00,48.0,24.0,30.15,SSW,193,5.0,7.0,39,0.00,,,0.00,,2013-03-12 08:32:00,
2013-03-12 01:41:00,48.0,24.0,30.15,SSW,193,5.0,7.0,39,0.00,,,0.00,,2013-03-12 08:41:00,
2013-03-12 01:52:00,47.0,25.0,30.15,SSW,192,5.0,6.0,41,0.00,,,0.00,,2013-03-12 08:52:00,
2013-03-12 02:02:00,47.0,25.0,30.15,South,184,6.0,7.0,42,0.00,,,0.00,,2013-03-12 09:02:00,
2013-03-12 02:11:00,47.0,25.0,30.15,South,184,6.0,7.0,42,0.00,,,0.00,,2013-03-12 09:11:00,
2013-03-12 02:22:00,46.0,24.0,30.15,South,185,7.0,9.0,42,0.00,,,0.00,,2013-03-12 09:22:00,
2013-03-12 02:32:00,46.0,25.0,30.15,South,191,6.0,9.0,43,0.00,,,0.00,,2013-03-12 09:32:00,
2013-03-12 02:42:00,46.0,25.0,30.15,South,191,6.0,9.0,43,0.00,,,0.00,,2013-03-12 09:42:00,
2013-03-12 02:52:00,46.0,25.0,30.15,SSW,193,5.0,6.0,44,0.00,,,0.00,,2013-03-12 09:52:00,
2013-03-12 03:01:00,45.0,24.0,30.15,SSW,201,4.0,6.0,43,0.00,,,0.00,,2013-03-12 10:01:00,
2013-03-12 03:11:00,45.0,24.0,30.15,SSW,201,4.0,6.0,43,0.00,,,0.00,,2013-03-12 10:11:00,
2013-03-12 03:22:00,45.0,24.0,30.15,SSW,194,6.0,6.0,43,0.00,,,0.00,,2013-03-12 10:22:00,
2013-03-12 03:32:00,45.0,24.0,30.15,SSW,203,6.0,7.0,44,0.00,,,0.00,,2013-03-12 10:32:00,
2013-03-12 03:41:00,45.0,24.0,30.15,SSW,203,6.0,7.0,44,0.00,,,0.00,,2013-03-12 10:41:00,
2013-03-12 03:52:00,45.0,24.0,30.13,SSW,201,6.0,6.0,43,0.00,,,0.00,,2013-03-12 10:52:00,
2013-03-12 04:01:00,45.0,25.0,30.13,SSW,192,7.0,7.0,45,0.00,,,0.00,,2013-03-12 11:01:00,
2013-03-12 04:11:00,45.0,25.0,30.13,SSW,192,7.0,7.0,45,0.00,,,0.00,,2013-03-12 11:11:00,
2013-03-12 04:22:00,44.0,24.0,30.13,SSW,195,5.0,6.0,45,0.00,,,0.00,,2013-03-12 11:22:00,
2013-03-12 04:31:00,44.0,24.0,30.13,SSW,195,4.0,6.0,45,0.00,,,0.00,,2013-03-12 11:31:00,
2013-03-12 04:42:00,44.0,24.0,30.13,SSW,195,4.0,6.0,45,0.00,,,0.00,,2013-03-12 11:42:00,
2013-03-12 04:52:00,43.0,25.0,30.14,South,185,5.0,9.0,48,0.00,,,0.00,,2013-03-12 11:52:00,
2013-03-12 05:02:00,43.0,25.0,30.14,South,186,6.0,6.0,48,0.00,,,0.00,,2013-03-12 12:02:00,
2013-03-12 05:12:00,43.0,25.0,30.14,South,186,6.0,6.0,48,0.00,,,0.00,,2013-03-12 12:12:00,
2013-03-12 05:22:00,42.0,24.0,30.15,South,186,5.0,6.0,49,0.00,,,0.00,,2013-03-12 12:22:00,
2013-03-12 05:31:00,42.0,25.0,30.15,South,182,5.0,7.0,50,0.00,,,0.00,,2013-03-12 12:31:00,
2013-03-12 05:41:00,42.0,25.0,30.15,South,182,5.0,7.0,50,0.00,,,0.00,,2013-03-12 12:41:00,
2013-03-12 05:52:00,41.0,24.0,30.13,South,177,5.0,5.0,50,0.00,,,0.00,,2013-03-12 12:52:00,
2013-03-12 06:01:00,41.0,24.0,30.13,SSE,159,5.0,5.0,51,0.00,,,0.00,,2013-03-12 13:01:00,
2013-03-12 06:11:00,41.0,24.0,30.13,SSE,159,5.0,5.0,51,0.00,,,0.00,,2013-03-12 13:11:00,
2013-03-12 06:21:00,41.0,25.0,30.16,South,174,5.0,6.0,53,0.00,,,0.00,,2013-03-12 13:21:00,
2013-03-12 06:32:00,41.0,25.0,30.16,South,176,6.0,6.0,53,0.00,,,0.00,,2013-03-12 13:32:00,
2013-03-12 06:42:00,41.0,25.0,30.16,South,176,6.0,6.0,53,0.00,,,0.00,,2013-03-12 13:42:00,
2013-03-12 06:52:00,40.0,25.0,30.16,South,179,5.0,7.0,55,0.00,,,0.00,,2013-03-12 13:52:00,
2013-03-12 07:01:00,40.0,25.0,30.16,South,179,1.0,7.0,55,0.00,,,0.00,,2013-03-12 14:01:00,
2013-03-12 07:11:00,40.0,25.0,30.16,South,179,1.0,7.0,55,0.00,,,0.00,,2013-03-12 14:11:00,
2013-03-12 07:21:00,40.0,25.0,30.16,South,179,6.0,7.0,55,0.00,,,0.00,,2013-03-12 14:21:00,
2013-03-12 07:32:00,40.0,25.0,30.16,SSW,194,5.0,8.0,55,0.00,,,0.00,,2013-03-12 14:32:00,
2013-03-12 07:42:00,40.0,25.0,30.16,SSW,194,5.0,8.0,55,0.00,,,0.00,,2013-03-12 14:42:00,
2013-03-12 07:53:00,40.0,25.0,30.16,South,188,6.0,8.0,55,0.00,,,0.00,,2013-03-12 14:53:00,
2013-03-12 08:01:00,40.0,25.0,30.16,SSW,193,5.0,7.0,54,0.00,,,0.00,,2013-03-12 15:01:00,
2013-03-12 08:12:00,40.0,25.0,30.16,SSW,193,5.0,7.0,54,0.00,,,0.00,,2013-03-12 15:12:00,
2013-03-12 08:22:00,43.0,26.0,30.20,SSW,195,4.0,5.0,50,0.00,,,0.00,,2013-03-12 15:22:00,
2013-03-12 08:31:00,44.0,25.0,30.20,SSW,198,2.0,4.0,46,0.00,,,0.00,,2013-03-12 15:31:00,
2013-03-12 08:41:00,44.0,25.0,30.20,SSW,198,2.0,4.0,46,0.00,,,0.00,,2013-03-12 15:41:00,
2013-03-12 08:53:00,49.0,20.0,30.19,SSW,210,0.0,2.0,31,0.00,,,0.00,,2013-03-12 15:53:00,
2013-03-12 09:01:00,52.0,16.0,30.19,WSW,247,3.0,7.0,24,0.00,,,0.00,,2013-03-12 16:01:00,
2013-03-12 09:12:00,52.0,16.0,30.19,WSW,247,3.0,7.0,24,0.00,,,0.00,,2013-03-12 16:12:00,
2013-03-12 09:22:00,56.0,16.0,30.20,West,280,4.0,5.0,20,0.00,,,0.00,,2013-03-12 16:22:00,
2013-03-12 09:32:00,58.0,16.0,30.20,West,281,3.0,5.0,19,0.00,,,0.00,,2013-03-12 16:32:00,
2013-03-12 09:42:00,58.0,16.0,30.20,West,281,3.0,5.0,19,0.00,,,0.00,,2013-03-12 16:42:00,
2013-03-12 09:52:00,60.0,14.0,30.21,West,281,1.0,3.0,16,0.00,,,0.00,,2013-03-12 16:52:00,
2013-03-12 10:02:00,61.0,13.0,30.21,West,281,2.0,4.0,15,0.00,,,0.00,,2013-03-12 17:02:00,
2013-03-12 10:12:00,61.0,13.0,30.21,West,281,2.0,4.0,15,0.00,,,0.00,,2013-03-12 17:12:00,
2013-03-12 10:21:00,63.0,13.0,30.20,NW,306,4.0,6.0,14,0.00,,,0.00,,2013-03-12 17:21:00,
2013-03-12 10:33:00,64.0,14.0,30.20,NW,307,2.0,5.0,14,0.00,,,0.00,,2013-03-12 17:33:00,
2013-03-12 10:42:00,64.0,14.0,30.20,NW,307,2.0,5.0,14,0.00,,,0.00,,2013-03-12 17:42:00,
2013-03-12 10:53:00,66.0,14.0,30.22,NW,312,3.0,5.0,13,0.00,,,0.00,,2013-03-12 17:53:00,
2013-03-12 11:02:00,67.0,13.0,30.22,NW,314,0.0,5.0,12,0.00,,,0.00,,2013-03-12 18:02:00,
2013-03-12 11:12:00,69.0,12.0,30.22,NW,314,0.0,3.0,11,0.00,,,0.00,,2013-03-12 18:12:00,
2013-03-12 11:22:00,69.0,12.0,30.22,NW,314,0.0,3.0,11,0.00,,,0.00,,2013-03-12 18:22:00,
2013-03-12 11:32:00,71.0,12.0,30.22,NW,315,2.0,2.0,10,0.00,,,0.00,,2013-03-12 18:32:00,
2013-03-12 11:42:00,71.0,12.0,30.22,NW,315,2.0,2.0,10,0.00,,,0.00,,2013-03-12 18:42:00,
2013-03-12 11:53:00,72.0,12.0,30.21,NE,42,1.0,5.0,10,0.00,,,0.00,,2013-03-12 18:53:00,
2013-03-12 12:02:00,73.0,11.0,30.21,ESE,122,4.0,6.0,9,0.00,,,0.00,,2013-03-12 19:02:00,
2013-03-12 12:12:00,73.0,11.0,30.21,ESE,122,4.0,6.0,9,0.00,,,0.00,,2013-03-12 19:12:00,
2013-03-12 12:22:00,73.0,11.0,30.19,ENE,60,2.0,6.0,9,0.00,,,0.00,,2013-03-12 19:22:00,
2013-03-12 12:32:00,74.0,12.0,30.19,ENE,74,2.0,6.0,9,0.00,,,0.00,,2013-03-12 19:32:00,
2013-03-12 12:43:00,74.0,12.0,30.19,ENE,74,2.0,6.0,9,0.00,,,0.00,,2013-03-12 19:43:00,
2013-03-12 12:53:00,74.0,12.0,30.19,NE,43,4.0,7.0,9,0.00,,,0.00,,2013-03-12 19:53:00,
2013-03-12 13:01:00,74.0,12.0,30.19,ENE,58,4.0,6.0,9,0.00,,,0.00,,2013-03-12 20:01:00,
2013-03-12 13:11:00,74.0,12.0,30.19,ENE,58,4.0,6.0,9,0.00,,,0.00,,2013-03-12 20:11:00,
2013-03-12 13:22:00,75.0,12.0,30.18,East,89,2.0,6.0,9,0.00,,,0.00,,2013-03-12 20:22:00,
2013-03-12 13:32:00,75.0,12.0,30.18,NE,46,1.0,4.0,9,0.00,,,0.00,,2013-03-12 20:32:00,
2013-03-12 13:42:00,75.0,12.0,30.18,NE,46,1.0,4.0,9,0.00,,,0.00,,2013-03-12 20:42:00,
2013-03-12 13:53:00,77.0,11.0,30.16,ENE,71,3.0,6.0,8,0.00,,,0.00,,2013-03-12 20:53:00,
2013-03-12 14:02:00,77.0,11.0,30.16,ENE,74,5.0,6.0,8,0.00,,,0.00,,2013-03-12 21:02:00,
2013-03-12 14:11:00,77.0,11.0,30.16,ENE,74,5.0,6.0,8,0.00,,,0.00,,2013-03-12 21:11:00,
2013-03-12 14:22:00,77.0,11.0,30.14,ENE,63,4.0,9.0,8,0.00,,,0.00,,2013-03-12 21:22:00,
2013-03-12 14:32:00,77.0,14.0,30.14,ENE,73,3.0,6.0,9,0.00,,,0.00,,2013-03-12 21:32:00,
2013-03-12 14:42:00,77.0,14.0,30.14,ENE,73,3.0,6.0,9,0.00,,,0.00,,2013-03-12 21:42:00,
2013-03-12 14:52:00,77.0,14.0,30.14,ENE,71,6.0,9.0,9,0.00,,,0.00,,2013-03-12 21:52:00,
2013-03-12 15:01:00,77.0,14.0,30.14,ENE,68,2.0,9.0,9,0.00,,,0.00,,2013-03-12 22:01:00,
2013-03-12 15:12:00,77.0,14.0,30.14,ENE,68,2.0,9.0,9,0.00,,,0.00,,2013-03-12 22:12:00,
2013-03-12 15:22:00,80.0,16.0,30.12,SE,141,1.0,11.0,9,0.00,,,0.00,,2013-03-12 22:22:00,
2013-03-12 15:32:00,80.0,16.0,30.12,SSE,165,5.0,9.0,9,0.00,,,0.00,,2013-03-12 22:32:00,
2013-03-12 15:42:00,80.0,16.0,30.12,SSE,165,5.0,9.0,9,0.00,,,0.00,,2013-03-12 22:42:00,
2013-03-12 15:53:00,81.0,14.0,30.11,ESE,107,5.0,10.0,8,0.00,,,0.00,,2013-03-12 22:53:00,
2013-03-12 16:02:00,81.0,14.0,30.11,East,95,2.0,7.0,8,0.00,,,0.00,,2013-03-12 23:02:00,
2013-03-12 16:11:00,81.0,14.0,30.11,East,95,2.0,7.0,8,0.00,,,0.00,,2013-03-12 23:11:00,
2013-03-12 16:22:00,82.0,15.0,30.10,ESE,106,2.0,9.0,8,0.00,,,0.00,,2013-03-12 23:22:00,
2013-03-12 16:33:00,80.0,13.0,30.10,East,86,6.0,11.0,8,0.00,,,0.00,,2013-03-12 23:33:00,
2013-03-12 16:42:00,80.0,13.0,30.10,East,86,6.0,11.0,8,0.00,,,0.00,,2013-03-12 23:42:00,
2013-03-12 16:52:00,80.0,13.0,30.10,South,186,3.0,10.0,8,0.00,,,0.00,,2013-03-12 23:52:00,
2013-03-12 17:02:00,81.0,14.0,30.10,ESE,110,4.0,9.0,8,0.00,,,0.00,,2013-03-13 00:02:00,
2013-03-12 17:11:00,81.0,14.0,30.10,ESE,110,4.0,9.0,8,0.00,,,0.00,,2013-03-13 00:11:00,
2013-03-12 17:22:00,81.0,14.0,30.09,East,96,4.0,6.0,8,0.00,,,0.00,,2013-03-13 00:22:00,
2013-03-12 17:32:00,80.0,13.0,30.09,NE,54,3.0,6.0,8,0.00,,,0.00,,2013-03-13 00:32:00,
2013-03-12 17:53:00,80.0,13.0,30.10,ENE,61,3.0,4.0,8,0.00,,,0.00,,2013-03-13 00:53:00,
2013-03-12 18:02:00,80.0,16.0,30.10,ENE,63,3.0,6.0,9,0.00,,,0.00,,2013-03-13 01:02:00,
2013-03-12 18:12:00,80.0,16.0,30.10,ENE,63,3.0,6.0,9,0.00,,,0.00,,2013-03-13 01:12:00,
2013-03-12 18:21:00,78.0,15.0,30.11,ENE,58,0.0,4.0,9,0.00,,,0.00,,2013-03-13 01:21:00,
2013-03-12 18:31:00,78.0,15.0,30.11,NE,53,2.0,3.0,9,0.00,,,0.00,,2013-03-13 01:31:00,
2013-03-12 18:42:00,78.0,15.0,30.11,NE,53,2.0,3.0,9,0.00,,,0.00,,2013-03-13 01:42:00,
2013-03-12 18:52:00,77.0,16.0,30.12,NE,53,3.0,4.0,10,0.00,,,0.00,,2013-03-13 01:52:00,
2013-03-12 19:02:00,77.0,18.0,30.12,NE,53,2.0,4.0,11,0.00,,,0.00,,2013-03-13 02:02:00,
2013-03-12 19:11:00,77.0,18.0,30.12,NE,53,2.0,4.0,11,0.00,,,0.00,,2013-03-13 02:11:00,
2013-03-12 19:21:00,75.0,17.0,30.10,NE,49,3.0,3.0,11,0.00,,,0.00,,2013-03-13 02:21:00,
2013-03-12 19:31:00,73.0,19.0,30.10,NE,49,3.0,4.0,13,0.00,,,0.00,,2013-03-13 02:31:00,
2013-03-12 19:42:00,73.0,19.0,30.10,NE,49,3.0,4.0,13,0.00,,,0.00,,2013-03-13 02:42:00,
2013-03-12 19:52:00,70.0,22.0,30.13,East,86,3.0,5.0,16,0.00,,,0.00,,2013-03-13 02:52:00,
2013-03-12 20:01:00,69.0,21.0,30.13,East,86,2.0,4.0,16,0.00,,,0.00,,2013-03-13 03:01:00,
2013-03-12 20:12:00,69.0,21.0,30.13,East,86,2.0,4.0,16,0.00,,,0.00,,2013-03-13 03:12:00,
2013-03-12 20:22:00,67.0,23.0,30.14,East,86,2.0,3.0,19,0.00,,,0.00,,2013-03-13 03:22:00,
2013-03-12 20:31:00,66.0,24.0,30.14,East,86,1.0,2.0,20,0.00,,,0.00,,2013-03-13 03:31:00,
2013-03-12 20:52:00,63.0,25.0,30.15,East,89,4.0,5.0,23,0.00,,,0.00,,2013-03-13 03:52:00,
2013-03-12 21:02:00,62.0,26.0,30.15,East,96,6.0,7.0,25,0.00,,,0.00,,2013-03-13 04:02:00,
2013-03-12 21:12:00,62.0,26.0,30.15,East,96,6.0,7.0,25,0.00,,,0.00,,2013-03-13 04:12:00,
2013-03-12 21:22:00,59.0,22.0,30.15,SSW,203,6.0,8.0,24,0.00,,,0.00,,2013-03-13 04:22:00,
2013-03-12 21:31:00,58.0,21.0,30.15,SSW,195,6.0,8.0,24,0.00,,,0.00,,2013-03-13 04:31:00,
2013-03-12 21:42:00,58.0,21.0,30.15,SSW,195,6.0,8.0,24,0.00,,,0.00,,2013-03-13 04:42:00,
2013-03-12 21:53:00,58.0,22.0,30.17,SSW,206,6.0,9.0,25,0.00,,,0.00,,2013-03-13 04:53:00,
2013-03-12 22:01:00,58.0,22.0,30.17,SSW,203,5.0,8.0,25,0.00,,,0.00,,2013-03-13 05:01:00,
2013-03-12 22:11:00,58.0,22.0,30.17,SSW,203,5.0,8.0,25,0.00,,,0.00,,2013-03-13 05:11:00,
2013-03-12 22:22:00,56.0,22.0,30.18,South,186,7.0,9.0,26,0.00,,,0.00,,2013-03-13 05:22:00,
2013-03-12 22:31:00,56.0,22.0,30.18,SSW,196,5.0,8.0,26,0.00,,,0.00,,2013-03-13 05:31:00,
2013-03-12 22:42:00,56.0,22.0,30.18,SSW,196,5.0,8.0,26,0.00,,,0.00,,2013-03-13 05:42:00,
2013-03-12 22:52:00,55.0,23.0,30.19,South,188,5.0,6.0,28,0.00,,,0.00,,2013-03-13 05:52:00,
2013-03-12 23:01:00,55.0,23.0,30.19,South,184,6.0,9.0,28,0.00,,,0.00,,2013-03-13 06:01:00,
2013-03-12 23:12:00,55.0,23.0,30.19,South,184,6.0,9.0,28,0.00,,,0.00,,2013-03-13 06:12:00,
2013-03-12 23:22:00,54.0,22.0,30.19,South,181,6.0,8.0,28,0.00,,,0.00,,2013-03-13 06:22:00,
2013-03-12 23:31:00,54.0,22.0,30.19,South,185,5.0,7.0,28,0.00,,,0.00,,2013-03-13 06:31:00,
2013-03-12 23:42:00,54.0,22.0,30.19,South,185,5.0,7.0,28,0.00,,,0.00,,2013-03-13 06:42:00,
2013-03-12 23:52:00,53.0,22.0,30.19,SSW,193,5.0,6.0,30,0.00,,,0.00,,2013-03-13 06:52:00,